Flag for U.S.A. Weather past 2 weeks in Columbia, South Carolina, U.S.A.

Now
76 °F

Passing clouds.


Feels Like: 76 °F
Forecast: 73 / 93 °F
Wind: No wind

Location: Columbia Owens Downtown Airport

Current Time: Aug 31, 2014 at 4:32:26 AM

Latest Report: Aug 31, 2014 at 3:53 AM


Visibility: 10 mi

Pressure: 30.14 "Hg

Humidity: 85%

Dew point: 71 °F

Location of ColumbiaLocation

Historic Weather in Columbia — Graph

°F

Columbia temperature yesterday

Maximum temperature yesterday: 94 °F (at 2:53 PM)
Minimum temperature yesterday: 73 °F (at 4:53 AM)
Average temperature yesterday: 83 °F

Past Weeks' High & Low Weather Summary

 TemperatureHumidityPressure
High99 °F (Aug 22, 5:53 PM)91% (Aug 16, 4:53 AM)30.19 "Hg (Aug 16, 4:53 AM)
Low63 °F (Aug 28, 6:53 AM)22% (Aug 28, 4:53 PM)29.82 "Hg (Aug 18, 4:53 PM)
Average82 °F61%30.00 "Hg
* Reported Aug 16 2:53 AM — Aug 31 2:53 AM, Columbia, Weather by CustomWeather, © 2014

Note: Actual official high and low records may vary slightly from our data, if they occured in-between our weather recording intervals... More about our weather records

Advertising

Columbia weather history for previous 24 hours

 ConditionsComfort  
Time TempWeatherWind HumidityBarometerVisibility
2:53 AM
Aug 31
76 °FClear.No wind85%30.14 "Hg10 mi
1:53 AM77 °FClear.No wind82%30.15 "Hg10 mi
12:53 AM78 °FClear.No wind76%30.15 "Hg10 mi
11:53 PM
Aug 30
79 °FPassing clouds.No wind74%30.15 "Hg10 mi
10:53 PM81 °FPassing clouds.3 mph67%30.15 "Hg10 mi
9:53 PM82 °FClear.3 mph63%30.14 "Hg10 mi
8:53 PM84 °FClear.No wind59%30.12 "Hg10 mi
7:53 PM87 °FSunny.3 mph48%30.09 "Hg10 mi
6:53 PM91 °FSunny.3 mph37%30.08 "Hg10 mi
5:53 PM93 °FSunny.5 mph34%30.08 "Hg10 mi
4:53 PM94 °FSunny.6 mph31%30.09 "Hg10 mi
3:53 PM94 °FSunny.7 mph32%30.10 "Hg10 mi
2:53 PM94 °FSunny.3 mph33%30.12 "Hg10 mi
1:53 PM92 °FPassing clouds.6 mph40%30.15 "Hg10 mi
12:53 PM91 °FPartly sunny.5 mph45%30.16 "Hg10 mi
11:53 AM87 °FScattered clouds.No wind57%30.18 "Hg10 mi
10:53 AM87 °FBroken clouds.5 mph57%30.19 "Hg10 mi
9:53 AM82 °FCloudy.No wind74%30.19 "Hg10 mi
8:53 AM80 °FSunny.No wind76%30.18 "Hg10 mi
7:53 AM75 °FClear.No wind88%30.18 "Hg10 mi
6:53 AM73 °FClear.No wind90%30.16 "Hg10 mi
6:03 AM73 °FPartly cloudy.No wind88%30.17 "Hg10 mi
5:53 AM73 °FPassing clouds.No wind88%30.16 "Hg10 mi
4:53 AM73 °FClear.No wind88%30.14 "Hg10 mi
Weather by CustomWeather, © 2014

See weather overviewHow to use our weather pages